Weather in Staryye Karamaly

Russia / Republic of Tatarstan     55°19′01″N   53°33′01″E
temp.,
°C
wind,
m/s
gust,
m/s
humid.,
%
clouds,
%
prec.,
mm/h
press.,
hPa
HPBL,
m
20 april, tue
tue2000:000e410540 0.0 1032242
03:00−1ese49570 0.0 1033198
06:000ese59430 0.0 1034423
09:00+5ese67281 0.0 10341099
12:00+7ese56270 0.0 10331342
15:00+8ese45270 0.0 10321334
18:00+6ese34390 0.0 103171
21:00+3ese36450 0.0 103191
21 april, wed
wed2100:00+2ese224615 0.0 103126
03:00+1se375087 0.0 1032100
06:00+3se4950100 0.0 1031315
09:00+7sse71034100 0.0 1030900
12:00+10sse81029100 0.0 10281156
15:00+11s81028100 0.0 10281353
18:00+9sse51137100 0.0 1027500
21:00+8sse51241100 0.0 1027538
22 april, thu
thu2200:00+6s61050100 0.1 1028883
03:00+4sse61285100 0.9 1028805
06:00+4sse71495100 0.3 1028829
09:00+4s71495100 0.5 1028765
12:00+6s71167100 0.0 1029823
15:00+5s71180100 0.0 1029658
18:00+4s61195100 0.0 1029535
21:00+2s61296100 0.3 1030517
23 april, fri
fri2300:00+2s4997100 0.4 1029412
03:00+2s4797100 0.8 1029393
06:00+2s3599100 0.3 1029317
09:00+3ssw2496100 0.3 1029302
12:00+6s3384100 0.0 1029561
15:00+8se2272100 0.0 1028794
18:00+7ene2379100 0.0 102769
21:00+5ene3488100 0.0 102679
24 april, sat
sat2400:00+5ne3788100 0.0 1025192
03:00+5ene3693100 0.1 1023170
06:00+5e2396100 0.3 1022122
09:00+6e2596100 0.9 1020297
12:00+6e1294100 0.9 1019131
15:00+6ne1293100 1.6 1018196
18:00+6ne1196100 0.2 101718
21:00+6e0195100 0.2 101611